Lid_Strength_Index
3 3 3 3 3 3 4 4 4 4 5 5 5 5 6 6 6 7 8 8 10 12 12 10 9 10 10 10 11 9 9 9 9 12 13 13 14 13 14 12 14 14 15 14 14 16 17 8 8 13 9 7 7 7
2 3 3 3 3 4 4 4 4 4 5 5 5 5 6 6 6 6 9 8 8 11 12 8 8 8 8 8 9 8 10 10 8 10 10 11 13 12 13 16 9 15 12 14 13 14 9 7 8 6 6 7 7 6
2 2 2 3 3 4 4 4 4 5 5 5 5 5 6 6 6 6 8 8 10 12 12 11 9 7 6 6 6 9 8 7 7 5 9 9 12 10 14 13 11 9 8 11 11 10 8 7 6 6 5 6 5 6
4 3 2 3 3 4 4 4 5 5 5 6 6 5 6 6 6 6 8 9 10 12 15 11 7 7 5 5 6 6 6 6 6 7 8 9 11 8 11 10 11 9 8 10 11 8 7 7 6 6 6 6 6 6
4 4 4 4 5 4 5 5 5 5 6 6 6 5 6 6 7 8 8 8 8 11 14 12 8 6 5 5 6 6 7 8 8 8 9 9 7 8 8 9 10 8 10 11 12 8 8 9 6 5 6 7 7 6
4 4 4 5 6 5 5 6 6 6 6 6 6 6 6 7 8 9 12 8 8 8 12 14 8 8 6 6 6 7 7 7 7 8 8 7 5 8 11 12 8 6 6 6 7 6 7 7 5 4 6 6 6 6
4 4 5 6 6 6 6 7 7 7 7 6 6 6 6 7 8 11 13 8 8 8 12 13 11 7 7 6 4 5 6 6 6 7 7 7 7 7 10 12 8 7 6 6 5 6 7 7 7 5 6 7 7 7
5 6 6 6 6 7 7 7 7 7 6 6 6 6 7 7 8 10 8 7 7 10 11 14 12 9 7 7 7 4 7 6 6 7 7 8 7 8 11 8 7 7 6 6 6 6 6 5 6 6 6 8 9 10
6 7 7 7 7 7 7 7 7 7 6 6 7 7 8 10 11 9 7 6 7 10 12 11 12 11 7 6 7 6 5 9 6 9 9 8 10 11 8 7 7 7 7 7 6 6 6 7 8 8 8 9 10 10
6 7 7 7 7 7 7 7 7 6 6 7 9 10 12 10 8 6 8 10 11 11 10 11 9 11 7 7 7 8 6 9 11 9 7 10 10 6 6 5 6 7 8 8 9 8 7 9 9 9 9 9 9 10
6 7 7 7 7 7 7 7 7 6 7 10 11 11 9 8 8 9 11 12 11 12 10 10 9 9 6 9 9 7 8 8 12 10 11 11 11 8 5 5 6 6 7 7 7 7 7 7 9 9 10 10 10 11
6 6 6 6 7 7 7 6 6 8 9 9 9 9 9 10 11 14 13 11 12 13 9 9 8 8 7 6 8 7 10 9 13 8 11 13 9 7 6 6 6 6 6 7 7 7 7 9 10 10 11 12 12 12
6 6 7 6 7 6 6 6 6 7 8 9 10 12 12 13 16 16 17 15 13 10 8 8 8 6 6 6 8 8 11 12 7 12 12 10 7 6 7 7 7 6 7 8 9 9 10 10 10 12 13 12 12 13
4 4 5 6 6 6 6 6 6 8 9 12 13 16 15 16 15 14 13 12 10 8 8 6 7 7 6 8 8 11 9 9 12 14 13 9 7 6 6 6 7 8 8 8 9 10 10 11 12 12 12 12 13 13
4 4 4 6 6 6 5 5 6 8 10 13 13 16 15 13 12 11 11 11 9 8 8 7 7 7 8 9 8 9 11 12 12 13 10 7 6 6 6 7 7 8 8 9 9 10 11 11 12 13 12 12 12 12
3 3 4 4 5 5 4 5 7 8 9 11 13 14 12 13 12 12 11 11 8 8 8 7 8 9 10 9 11 11 12 13 12 9 6 6 6 6 6 6 7 7 8 8 9 9 10 11 11 12 12 12 13 13
3 4 3 3 4 5 5 7 8 10 11 13 14 11 11 11 12 10 10 10 8 8 9 8 10 10 8 11 11 10 11 10 8 7 6 6 5 6 5 6 6 7 8 8 9 9 10 10 10 11 13 13 12 12
5 4 3 2 2 4 6 7 10 11 13 12 13 12 11 10 10 10 9 8 8 8 7 9 6 10 11 12 12 8 7 6 6 6 6 5 5 5 5 6 6 7 8 9 9 10 10 10 11 11 12 12 12 12
4 4 3 2 3 6 8 8 7 12 11 11 11 10 10 10 9 8 7 7 7 6 6 7 9 10 9 7 7 6 5 6 7 5 5 4 4 4 5 6 6 7 8 8 9 10 9 9 10 10 11 11 12 12
3 3 2 3 3 7 9 9 6 9 11 9 9 9 9 9 7 8 8 7 8 7 9 10 9 7 7 5 4 4 4 4 5 6 6 5 5 5 5 6 7 7 7 8 8 10 9 10 9 10 10 11 11 12
3 3 2 4 5 6 7 8 9 9 9 9 8 8 8 8 9 8 8 7 9 9 10 8 7 5 4 3 3 3 4 4 5 5 5 6 6 6 6 6 6 7 8 8 9 9 9 9 9 9 10 10 10 10
3 3 5 4 7 7 8 7 8 8 9 8 8 8 9 9 8 8 7 9 9 8 7 7 6 5 5 5 4 3 3 3 3 3 5 6 6 7 7 7 7 8 8 8 8 8 8 8 8 8 9 9 10 10
3 4 6 6 8 9 10 7 9 8 10 10 8 9 9 8 7 6 8 7 6 5 5 5 5 5 5 4 4 3 3 3 4 4 4 4 4 5 7 6 6 6 7 8 7 8 8 10 9 8 8 9 9 10
3 7 9 9 9 11 8 9 8 9 9 10 11 12 10 8 6 8 9 7 5 3 4 5 5 6 5 5 5 4 3 3 3 3 3 5 6 6 6 6 5 5 6 7 7 8 8 8 9 8 8 8 9 9
9 9 9 12 9 10 11 11 10 10 12 11 11 11 10 7 9 9 9 7 5 5 5 4 4 5 6 5 4 3 2 3 4 4 4 4 4 6 6 6 5 5 5 6 7 8 7 7 6 7 7 7 8 8
11 10 11 11 11 11 11 12 11 11 11 12 11 9 8 8 10 11 8 6 5 5 5 5 5 5 5 4 4 4 3 2 2 4 3 3 4 5 6 6 6 6 4 5 6 7 8 7 7 6 7 7 9 8
12 11 9 7 9 9 10 10 9 10 11 11 9 9 9 12 11 8 5 5 5 4 4 4 4 4 4 4 3 2 2 2 2 2 1 2 3 3 3 4 4 4 4 5 5 6 7 6 6 6 6 6 6 6
10 9 11 10 10 9 10 10 10 10 9 7 8 10 11 11 10 6 5 4 4 4 4 4 4 4 4 4 3 2 2 2 1 1 1 2 2 1 2 2 2 8 4 4 4 4 5 5 5 5 5 6 5 5
10 8 9 11 10 10 10 10 9 7 5 7 9 9 8 6 4 4 4 3 3 4 4 4 4 3 4 3 3 2 2 2 3 5 5 5 5 4 2 3 2 2 2 4 9 6 4 4 4 4 4 4 4 4
10 8 10 10 11 10 8 6 7 5 4 4 5 5 5 4 3 2 3 4 4 4 3 3 3 3 3 3 4 3 2 2 2 3 5 4 3 2 2 2 2 2 1 2 3 4 10 5 6 3 4 3 4 4
8 9 10 9 9 7 6 5 4 4 4 5 5 6 6 5 4 3 3 3 3 3 3 4 3 3 3 3 4 4 4 2 1 1 1 1 1 1 1 1 1 1 1 2 3 3 3 3 3 3 3 3 3 4
10 10 10 11 10 7 5 5 6 7 6 6 6 5 5 6 7 4 3 3 3 4 6 4 4 4 2 1 1 1 6 1 1 2 2 1 1 1 1 1 1 1 1 1 2 2 2 2 2 2 2 3 3 3
10 10 9 9 8 8 6 6 7 7 7 7 7 6 6 6 7 5 3 2 3 4 4 4 3 3 2 2 2 2 5 3 3 8 8 8 6 4 1 0 0 1 1 1 1 2 2 2 2 2 2 2 2 2